Time,TemperatureF,DewpointF,PressureIn,WindDirection,WindDirectionDegrees,WindSpeedMPH,WindSpeedGustMPH,Humidity,HourlyPrecipIn,Conditions,Clouds,dailyrainin,SoftwareType,DateUTC
2013-01-09 00:04:00,42.7,39.3,30.22,SE,135,0.0,0.0,88,0.00,,,0.00,WUHU216HW,2013-01-09 08:04:00,
2013-01-09 00:09:00,42.7,39.3,30.22,SE,135,0.0,0.0,88,0.00,,,0.00,WUHU216HW,2013-01-09 08:09:00,
2013-01-09 00:14:00,42.7,39.3,30.22,SE,135,0.0,0.0,88,0.00,,,0.00,WUHU216HW,2013-01-09 08:14:00,
2013-01-09 00:19:00,42.7,39.3,30.22,SE,135,0.0,0.0,88,0.00,,,0.00,WUHU216HW,2013-01-09 08:19:00,
2013-01-09 00:24:00,42.7,39.3,30.22,SE,135,0.0,0.0,88,0.00,,,0.00,WUHU216HW,2013-01-09 08:24:00,
2013-01-09 00:29:00,42.7,39.3,30.22,SE,135,0.0,0.0,88,0.00,,,0.00,WUHU216HW,2013-01-09 08:29:00,
2013-01-09 00:34:00,42.7,39.7,30.22,SE,135,0.0,0.0,89,0.00,,,0.00,WUHU216HW,2013-01-09 08:34:00,
2013-01-09 00:40:00,42.7,39.7,30.22,SE,135,0.0,0.0,89,0.00,,,0.00,WUHU216HW,2013-01-09 08:40:00,
2013-01-09 00:45:00,42.7,39.7,30.22,SE,135,0.0,0.0,89,0.00,,,0.00,WUHU216HW,2013-01-09 08:45:00,
2013-01-09 00:50:00,42.7,39.7,30.22,SE,135,0.0,0.0,89,0.00,,,0.00,WUHU216HW,2013-01-09 08:50:00,
2013-01-09 00:55:00,42.7,39.7,30.21,SE,135,0.0,0.0,89,0.00,,,0.00,WUHU216HW,2013-01-09 08:55:00,
2013-01-09 01:00:00,42.5,39.5,30.21,SE,135,0.0,0.0,89,0.00,,,0.00,WUHU216HW,2013-01-09 09:00:00,
2013-01-09 01:05:00,42.7,39.7,30.21,SE,135,0.0,0.0,89,0.00,,,0.00,WUHU216HW,2013-01-09 09:05:00,
2013-01-09 01:10:00,42.7,39.7,30.22,SE,135,0.0,0.0,89,0.00,,,0.00,WUHU216HW,2013-01-09 09:10:00,
2013-01-09 01:15:00,42.7,39.7,30.22,SE,135,0.0,0.0,89,0.00,,,0.00,WUHU216HW,2013-01-09 09:15:00,
2013-01-09 01:20:00,42.7,39.7,30.21,SE,135,0.0,0.0,89,0.00,,,0.00,WUHU216HW,2013-01-09 09:20:00,
2013-01-09 01:25:00,42.7,39.7,30.21,SE,135,0.0,0.0,89,0.00,,,0.00,WUHU216HW,2013-01-09 09:25:00,
2013-01-09 01:30:00,42.7,39.7,30.21,SE,135,0.0,0.0,89,0.00,,,0.00,WUHU216HW,2013-01-09 09:30:00,
2013-01-09 01:35:00,42.5,39.5,30.21,SE,135,0.0,0.0,89,0.00,,,0.00,WUHU216HW,2013-01-09 09:35:00,
2013-01-09 01:40:00,42.5,39.5,30.21,SE,135,0.0,0.0,89,0.00,,,0.00,WUHU216HW,2013-01-09 09:40:00,
2013-01-09 01:45:00,42.5,39.5,30.20,SE,135,0.0,0.0,89,0.00,,,0.00,WUHU216HW,2013-01-09 09:45:00,
2013-01-09 01:50:00,42.5,39.5,30.20,SE,135,0.0,0.0,89,0.00,,,0.00,WUHU216HW,2013-01-09 09:50:00,
2013-01-09 01:55:00,42.3,39.3,30.20,SE,135,0.0,0.0,89,0.00,,,0.00,WUHU216HW,2013-01-09 09:55:00,
2013-01-09 02:01:00,42.3,39.3,30.21,SE,135,0.0,0.0,89,0.00,,,0.00,WUHU216HW,2013-01-09 10:01:00,
2013-01-09 02:06:00,42.3,39.3,30.21,SE,135,0.0,0.0,89,0.00,,,0.00,WUHU216HW,2013-01-09 10:06:00,
2013-01-09 02:11:00,42.1,39.2,30.20,SE,135,0.0,0.0,89,0.00,,,0.00,WUHU216HW,2013-01-09 10:11:00,
2013-01-09 02:16:00,42.1,39.2,30.21,SE,135,0.0,0.0,89,0.00,,,0.00,WUHU216HW,2013-01-09 10:16:00,
2013-01-09 02:21:00,42.1,39.2,30.20,SE,135,0.0,0.0,89,0.00,,,0.00,WUHU216HW,2013-01-09 10:21:00,
2013-01-09 02:26:00,42.1,39.2,30.20,SE,135,0.0,0.0,89,0.00,,,0.00,WUHU216HW,2013-01-09 10:26:00,
2013-01-09 02:31:00,42.1,39.2,30.20,NW,315,0.4,0.4,89,0.00,,,0.00,WUHU216HW,2013-01-09 10:31:00,
2013-01-09 02:36:00,42.1,39.2,30.21,WNW,293,0.0,0.4,89,0.00,,,0.00,WUHU216HW,2013-01-09 10:36:00,
2013-01-09 02:41:00,42.1,39.2,30.21,WNW,293,0.0,0.2,89,0.00,,,0.00,WUHU216HW,2013-01-09 10:41:00,
2013-01-09 02:46:00,42.1,39.2,30.20,NW,315,0.0,0.0,89,0.00,,,0.00,WUHU216HW,2013-01-09 10:46:00,
2013-01-09 02:51:00,42.1,39.2,30.18,North,0,0.0,0.4,89,0.00,,,0.00,WUHU216HW,2013-01-09 10:51:00,
2013-01-09 02:56:00,42.1,39.4,30.18,North,0,0.0,0.4,90,0.00,,,0.00,WUHU216HW,2013-01-09 10:56:00,
2013-01-09 03:01:00,42.1,39.4,30.19,North,0,0.0,0.0,90,0.00,,,0.00,WUHU216HW,2013-01-09 11:01:00,
2013-01-09 03:06:00,41.9,39.2,30.19,North,0,0.0,0.0,90,0.00,,,0.00,WUHU216HW,2013-01-09 11:06:00,
2013-01-09 03:11:00,41.9,39.2,30.19,North,0,0.0,0.0,90,0.00,,,0.00,WUHU216HW,2013-01-09 11:11:00,
2013-01-09 03:16:00,41.8,38.8,30.19,NW,315,0.2,0.7,89,0.00,,,0.00,WUHU216HW,2013-01-09 11:16:00,
2013-01-09 03:21:00,41.8,38.8,30.19,NW,315,0.0,0.7,89,0.00,,,0.00,WUHU216HW,2013-01-09 11:21:00,
2013-01-09 03:26:00,41.6,38.6,30.19,NNW,338,0.0,0.0,89,0.00,,,0.00,WUHU216HW,2013-01-09 11:26:00,
2013-01-09 03:31:00,41.4,38.4,30.19,NNW,338,0.0,0.0,89,0.00,,,0.00,WUHU216HW,2013-01-09 11:31:00,
2013-01-09 03:36:00,41.4,38.4,30.18,NE,45,0.0,0.0,89,0.00,,,0.00,WUHU216HW,2013-01-09 11:36:00,
2013-01-09 03:42:00,41.4,38.7,30.18,NE,45,0.0,0.0,90,0.00,,,0.00,WUHU216HW,2013-01-09 11:42:00,
2013-01-09 03:47:00,41.2,38.5,30.19,NE,45,0.0,0.0,90,0.00,,,0.00,WUHU216HW,2013-01-09 11:47:00,
2013-01-09 03:52:00,41.0,38.3,30.18,NE,45,0.0,0.0,90,0.00,,,0.00,WUHU216HW,2013-01-09 11:52:00,
2013-01-09 03:57:00,41.0,38.3,30.17,NE,45,0.0,0.0,90,0.00,,,0.00,WUHU216HW,2013-01-09 11:57:00,
2013-01-09 04:02:00,41.0,38.3,30.16,NE,45,0.0,0.0,90,0.00,,,0.00,WUHU216HW,2013-01-09 12:02:00,
2013-01-09 04:07:00,41.0,38.3,30.17,NE,45,0.0,0.0,90,0.00,,,0.00,WUHU216HW,2013-01-09 12:07:00,
2013-01-09 04:12:00,41.0,38.3,30.17,NE,45,0.0,0.0,90,0.00,,,0.00,WUHU216HW,2013-01-09 12:12:00,
2013-01-09 04:17:00,40.9,38.2,30.16,NE,45,0.0,0.0,90,0.00,,,0.00,WUHU216HW,2013-01-09 12:17:00,
2013-01-09 04:22:00,40.9,38.2,30.16,NE,45,0.0,0.0,90,0.00,,,0.00,WUHU216HW,2013-01-09 12:22:00,
2013-01-09 04:27:00,40.7,38.0,30.17,NE,45,0.0,0.0,90,0.00,,,0.00,WUHU216HW,2013-01-09 12:27:00,
2013-01-09 04:32:00,40.7,38.0,30.17,NE,45,0.0,0.0,90,0.00,,,0.00,WUHU216HW,2013-01-09 12:32:00,
2013-01-09 04:37:00,40.5,37.8,30.17,NE,45,0.0,0.0,90,0.00,,,0.00,WUHU216HW,2013-01-09 12:37:00,
2013-01-09 04:42:00,40.3,37.6,30.17,NE,45,0.0,0.0,90,0.00,,,0.00,WUHU216HW,2013-01-09 12:42:00,
2013-01-09 04:47:00,40.3,37.6,30.17,NE,45,0.0,0.0,90,0.00,,,0.00,WUHU216HW,2013-01-09 12:47:00,
2013-01-09 04:53:00,40.3,37.6,30.16,NE,45,0.0,0.0,90,0.00,,,0.00,WUHU216HW,2013-01-09 12:53:00,
2013-01-09 04:58:00,40.1,37.4,30.16,NE,45,0.0,0.0,90,0.00,,,0.00,WUHU216HW,2013-01-09 12:58:00,
2013-01-09 05:03:00,40.1,37.4,30.16,NE,45,0.0,0.0,90,0.00,,,0.00,WUHU216HW,2013-01-09 13:03:00,
2013-01-09 05:08:00,40.1,37.4,30.16,NE,45,0.0,0.0,90,0.00,,,0.00,WUHU216HW,2013-01-09 13:08:00,
2013-01-09 05:13:00,40.1,37.4,30.16,NE,45,0.0,0.0,90,0.00,,,0.00,WUHU216HW,2013-01-09 13:13:00,
2013-01-09 05:18:00,40.1,37.4,30.15,NE,45,0.0,0.0,90,0.00,,,0.00,WUHU216HW,2013-01-09 13:18:00,
2013-01-09 05:23:00,40.1,37.4,30.14,NE,45,0.0,0.0,90,0.00,,,0.00,WUHU216HW,2013-01-09 13:23:00,
2013-01-09 05:28:00,40.1,37.4,30.15,NE,45,0.0,0.0,90,0.00,,,0.00,WUHU216HW,2013-01-09 13:28:00,
2013-01-09 05:33:00,40.0,37.3,30.15,NE,45,0.0,0.0,90,0.00,,,0.00,WUHU216HW,2013-01-09 13:33:00,
2013-01-09 05:38:00,40.1,37.4,30.15,NE,45,0.0,0.0,90,0.00,,,0.00,WUHU216HW,2013-01-09 13:38:00,
2013-01-09 05:43:00,40.0,37.3,30.15,NE,45,0.0,0.0,90,0.00,,,0.00,WUHU216HW,2013-01-09 13:43:00,
2013-01-09 05:48:00,40.0,37.3,30.15,NE,45,0.0,0.0,90,0.00,,,0.00,WUHU216HW,2013-01-09 13:48:00,
2013-01-09 05:53:00,40.0,37.3,30.15,NE,45,0.0,0.0,90,0.00,,,0.00,WUHU216HW,2013-01-09 13:53:00,
2013-01-09 05:59:00,40.0,37.3,30.15,NE,45,0.0,0.0,90,0.00,,,0.00,WUHU216HW,2013-01-09 13:59:00,
2013-01-09 06:04:00,40.1,37.4,30.16,NE,45,0.0,0.2,90,0.00,,,0.00,WUHU216HW,2013-01-09 14:04:00,
2013-01-09 06:09:00,40.0,37.3,30.15,NE,45,0.0,0.2,90,0.00,,,0.00,WUHU216HW,2013-01-09 14:09:00,
2013-01-09 06:14:00,40.0,37.3,30.15,NE,45,0.0,0.0,90,0.00,,,0.00,WUHU216HW,2013-01-09 14:14:00,
2013-01-09 06:19:00,40.0,37.3,30.15,NNE,23,0.0,0.0,90,0.00,,,0.00,WUHU216HW,2013-01-09 14:19:00,
2013-01-09 06:24:00,40.0,37.3,30.16,NNW,338,0.0,0.4,90,0.00,,,0.00,WUHU216HW,2013-01-09 14:24:00,
2013-01-09 06:29:00,40.0,37.3,30.15,NNW,338,0.0,0.4,90,0.00,,,0.00,WUHU216HW,2013-01-09 14:29:00,
2013-01-09 06:34:00,40.0,37.3,30.15,NNW,338,0.0,0.0,90,0.00,,,0.00,WUHU216HW,2013-01-09 14:34:00,
2013-01-09 06:39:00,40.0,37.3,30.15,NE,45,0.0,0.0,90,0.00,,,0.00,WUHU216HW,2013-01-09 14:39:00,
2013-01-09 06:44:00,40.0,37.3,30.15,NE,45,0.0,0.0,90,0.00,,,0.00,WUHU216HW,2013-01-09 14:44:00,
2013-01-09 06:49:00,39.8,37.1,30.15,NE,45,0.0,0.0,90,0.00,,,0.00,WUHU216HW,2013-01-09 14:49:00,
2013-01-09 06:54:00,39.6,36.9,30.15,NE,45,0.0,0.0,90,0.00,,,0.00,WUHU216HW,2013-01-09 14:54:00,
2013-01-09 07:00:00,39.6,36.9,30.15,North,0,0.0,0.4,90,0.00,,,0.00,WUHU216HW,2013-01-09 15:00:00,
2013-01-09 07:05:00,39.6,36.9,30.15,North,0,0.0,0.4,90,0.00,,,0.00,WUHU216HW,2013-01-09 15:05:00,
2013-01-09 07:10:00,39.6,37.2,30.15,North,0,0.0,0.0,91,0.00,,,0.00,WUHU216HW,2013-01-09 15:10:00,
2013-01-09 07:15:00,39.6,37.2,30.14,North,0,0.0,0.0,91,0.00,,,0.00,WUHU216HW,2013-01-09 15:15:00,
2013-01-09 07:20:00,39.6,37.2,30.15,North,0,0.0,0.0,91,0.00,,,0.00,WUHU216HW,2013-01-09 15:20:00,
2013-01-09 07:25:00,39.6,37.2,30.15,North,0,0.0,0.0,91,0.00,,,0.00,WUHU216HW,2013-01-09 15:25:00,
2013-01-09 07:30:00,39.4,37.0,30.14,North,0,0.0,0.0,91,0.00,,,0.00,WUHU216HW,2013-01-09 15:30:00,
2013-01-09 07:35:00,39.6,37.2,30.13,North,0,0.0,0.0,91,0.00,,,0.00,WUHU216HW,2013-01-09 15:35:00,
2013-01-09 07:40:00,39.6,37.2,30.14,ESE,113,0.2,0.4,91,0.00,,,0.00,WUHU216HW,2013-01-09 15:40:00,
2013-01-09 07:45:00,39.8,37.4,30.14,ESE,113,0.0,0.4,91,0.00,,,0.00,WUHU216HW,2013-01-09 15:45:00,
2013-01-09 07:50:00,39.8,37.4,30.14,ESE,113,0.0,0.2,91,0.00,,,0.00,WUHU216HW,2013-01-09 15:50:00,
2013-01-09 07:55:00,40.0,37.5,30.15,ESE,113,0.0,0.2,91,0.00,,,0.00,WUHU216HW,2013-01-09 15:55:00,
2013-01-09 08:00:00,40.1,37.7,30.15,ESE,113,0.0,0.0,91,0.00,,,0.00,WUHU216HW,2013-01-09 16:00:00,
2013-01-09 08:06:00,40.3,37.9,30.15,ESE,113,0.0,0.0,91,0.00,,,0.00,WUHU216HW,2013-01-09 16:06:00,
2013-01-09 08:11:00,40.7,38.3,30.15,ESE,113,0.0,0.0,91,0.00,,,0.00,WUHU216HW,2013-01-09 16:11:00,
2013-01-09 08:16:00,40.9,38.4,30.15,ESE,113,0.0,0.0,91,0.00,,,0.00,WUHU216HW,2013-01-09 16:16:00,
2013-01-09 08:21:00,41.0,38.6,30.16,ESE,113,0.0,0.0,91,0.00,,,0.00,WUHU216HW,2013-01-09 16:21:00,
2013-01-09 08:26:00,41.4,39.0,30.15,ESE,113,0.0,0.0,91,0.00,,,0.00,WUHU216HW,2013-01-09 16:26:00,
2013-01-09 08:31:00,41.8,39.3,30.15,ESE,113,0.0,0.0,91,0.00,,,0.00,WUHU216HW,2013-01-09 16:31:00,
2013-01-09 08:36:00,41.9,39.8,30.15,ESE,113,0.0,0.0,92,0.00,,,0.00,WUHU216HW,2013-01-09 16:36:00,
2013-01-09 08:41:00,42.5,40.3,30.15,ESE,113,0.0,0.2,92,0.00,,,0.00,WUHU216HW,2013-01-09 16:41:00,
2013-01-09 08:46:00,42.7,40.5,30.15,ESE,113,0.0,0.2,92,0.00,,,0.00,WUHU216HW,2013-01-09 16:46:00,
2013-01-09 08:51:00,43.0,40.9,30.15,ESE,113,0.0,0.2,92,0.00,,,0.00,WUHU216HW,2013-01-09 16:51:00,
2013-01-09 08:56:00,43.4,41.2,30.15,ESE,113,0.0,0.2,92,0.00,,,0.00,WUHU216HW,2013-01-09 16:56:00,
2013-01-09 09:01:00,43.6,41.4,30.16,ESE,113,0.0,0.2,92,0.00,,,0.00,WUHU216HW,2013-01-09 17:01:00,
2013-01-09 09:06:00,44.1,41.9,30.15,ESE,113,0.0,0.2,92,0.00,,,0.00,WUHU216HW,2013-01-09 17:06:00,
2013-01-09 09:11:00,44.5,42.3,30.15,ESE,113,0.0,0.4,92,0.00,,,0.00,WUHU216HW,2013-01-09 17:11:00,
2013-01-09 09:16:00,44.8,42.4,30.16,NW,315,0.0,0.4,91,0.00,,,0.00,WUHU216HW,2013-01-09 17:16:00,
2013-01-09 09:21:00,45.0,42.6,30.16,WNW,293,0.2,0.4,91,0.00,,,0.00,WUHU216HW,2013-01-09 17:21:00,
2013-01-09 09:26:00,45.5,43.1,30.16,WNW,293,0.0,0.2,91,0.00,,,0.00,WUHU216HW,2013-01-09 17:26:00,
2013-01-09 09:31:00,45.9,43.7,30.16,SW,225,0.0,0.2,92,0.00,,,0.00,WUHU216HW,2013-01-09 17:31:00,
2013-01-09 09:36:00,46.1,43.7,30.15,SW,225,0.0,0.2,91,0.00,,,0.00,WUHU216HW,2013-01-09 17:36:00,
2013-01-09 09:41:00,46.6,44.2,30.15,South,180,0.4,0.4,91,0.00,,,0.00,WUHU216HW,2013-01-09 17:41:00,
2013-01-09 09:47:00,47.2,44.7,30.15,SW,225,0.0,0.4,91,0.00,,,0.00,WUHU216HW,2013-01-09 17:47:00,
2013-01-09 09:52:00,47.5,45.1,30.14,West,270,0.2,0.7,91,0.00,,,0.00,WUHU216HW,2013-01-09 17:52:00,
2013-01-09 09:57:00,47.9,45.2,30.14,SE,135,0.4,0.7,90,0.00,,,0.00,WUHU216HW,2013-01-09 17:57:00,
2013-01-09 10:02:00,48.2,45.2,30.14,SSW,203,0.0,0.9,89,0.00,,,0.00,WUHU216HW,2013-01-09 18:02:00,
2013-01-09 10:07:00,48.6,45.5,30.14,SE,135,0.0,0.9,89,0.00,,,0.00,WUHU216HW,2013-01-09 18:07:00,
2013-01-09 10:12:00,49.0,45.5,30.14,NE,45,0.2,0.4,88,0.00,,,0.00,WUHU216HW,2013-01-09 18:12:00,
2013-01-09 10:17:00,49.3,45.9,30.13,North,0,0.0,0.4,88,0.00,,,0.00,WUHU216HW,2013-01-09 18:17:00,
2013-01-09 10:22:00,49.5,45.7,30.13,South,180,0.4,0.9,87,0.00,,,0.00,WUHU216HW,2013-01-09 18:22:00,
2013-01-09 10:27:00,49.7,45.6,30.12,SE,135,0.4,1.1,86,0.00,,,0.00,WUHU216HW,2013-01-09 18:27:00,
2013-01-09 10:32:00,49.7,45.6,30.13,SE,135,0.2,1.1,86,0.00,,,0.00,WUHU216HW,2013-01-09 18:32:00,
2013-01-09 10:37:00,49.7,45.6,30.12,SW,225,0.4,1.1,86,0.00,,,0.00,WUHU216HW,2013-01-09 18:37:00,
2013-01-09 10:41:00,50.0,45.9,30.12,SE,135,1.3,1.3,86,0.00,,,0.00,WUHU216HW,2013-01-09 18:41:00,
2013-01-09 10:42:00,50.0,45.9,30.12,SE,135,1.3,1.3,86,0.00,,,0.00,WUHU216HW,2013-01-09 18:42:00,
2013-01-09 10:44:00,50.0,45.9,30.12,SE,135,0.0,1.3,86,0.00,,,0.00,WUHU216HW,2013-01-09 18:44:00,
2013-01-09 10:45:00,49.9,45.8,30.12,North,0,0.4,1.3,86,0.00,,,0.00,WUHU216HW,2013-01-09 18:45:00,
2013-01-09 10:48:00,49.9,45.8,30.12,SE,135,0.4,1.3,86,0.00,,,0.00,WUHU216HW,2013-01-09 18:48:00,
2013-01-09 10:49:00,49.9,45.8,30.12,SE,135,0.4,1.3,86,0.00,,,0.00,WUHU216HW,2013-01-09 18:49:00,
2013-01-09 10:54:00,49.9,44.8,30.11,SE,135,0.2,1.6,83,0.00,,,0.00,WUHU216HW,2013-01-09 18:54:00,
2013-01-09 10:59:00,49.7,45.0,30.11,SE,135,0.2,1.8,84,0.00,,,0.00,WUHU216HW,2013-01-09 18:59:00,
2013-01-09 11:04:00,49.9,45.2,30.11,SE,135,1.8,1.8,84,0.00,,,0.00,WUHU216HW,2013-01-09 19:04:00,
2013-01-09 11:09:00,50.0,44.7,30.10,SSW,203,0.4,1.8,82,0.00,,,0.00,WUHU216HW,2013-01-09 19:09:00,
2013-01-09 11:14:00,50.0,45.4,30.10,South,180,0.2,2.2,84,0.00,,,0.00,WUHU216HW,2013-01-09 19:14:00,
2013-01-09 11:19:00,50.4,45.7,30.10,SSE,158,0.0,2.2,84,0.00,,,0.00,WUHU216HW,2013-01-09 19:19:00,
2013-01-09 11:24:00,50.8,46.1,30.10,SE,135,1.6,1.6,84,0.00,,,0.00,WUHU216HW,2013-01-09 19:24:00,
2013-01-09 11:29:00,50.8,45.7,30.09,SE,135,1.1,1.8,83,0.00,,,0.00,WUHU216HW,2013-01-09 19:29:00,
2013-01-09 11:34:00,50.9,45.9,30.09,SSE,158,0.9,1.8,83,0.00,,,0.00,WUHU216HW,2013-01-09 19:34:00,
2013-01-09 11:40:00,51.1,46.1,30.08,SSE,158,0.0,1.6,83,0.00,,,0.00,WUHU216HW,2013-01-09 19:40:00,
2013-01-09 11:45:00,51.1,45.5,30.08,SSE,158,2.0,2.7,81,0.00,,,0.00,WUHU216HW,2013-01-09 19:45:00,
2013-01-09 11:50:00,50.9,45.6,30.08,SSW,203,1.8,2.7,82,0.00,,,0.00,WUHU216HW,2013-01-09 19:50:00,
2013-01-09 11:55:00,50.9,45.6,30.08,SSW,203,0.9,2.5,82,0.00,,,0.00,WUHU216HW,2013-01-09 19:55:00,
2013-01-09 12:00:00,51.1,45.8,30.07,SSE,158,0.9,3.4,82,0.00,,,0.00,WUHU216HW,2013-01-09 20:00:00,
2013-01-09 12:05:00,51.1,45.8,30.06,SE,135,1.8,3.4,82,0.00,,,0.00,WUHU216HW,2013-01-09 20:05:00,
2013-01-09 12:10:00,51.1,45.8,30.05,South,180,0.9,2.2,82,0.00,,,0.00,WUHU216HW,2013-01-09 20:10:00,
2013-01-09 12:15:00,51.1,45.5,30.06,ESE,113,2.2,2.5,81,0.00,,,0.00,WUHU216HW,2013-01-09 20:15:00,
2013-01-09 12:20:00,51.3,45.6,30.06,SE,135,0.2,2.5,81,0.00,,,0.00,WUHU216HW,2013-01-09 20:20:00,
2013-01-09 12:25:00,51.5,46.2,30.06,South,180,3.1,3.1,82,0.00,,,0.00,WUHU216HW,2013-01-09 20:25:00,
2013-01-09 12:31:00,51.7,46.4,30.05,ESE,113,0.2,3.1,82,0.00,,,0.00,WUHU216HW,2013-01-09 20:31:00,
2013-01-09 12:36:00,51.8,45.9,30.04,South,180,2.5,3.8,80,0.00,,,0.00,WUHU216HW,2013-01-09 20:36:00,
2013-01-09 12:41:00,51.7,45.7,30.04,SSE,158,1.1,3.8,80,0.00,,,0.00,WUHU216HW,2013-01-09 20:41:00,
2013-01-09 12:46:00,51.7,46.0,30.04,SW,225,0.9,4.9,81,0.00,,,0.00,WUHU216HW,2013-01-09 20:46:00,
2013-01-09 12:51:00,51.8,46.2,30.04,SSE,158,2.9,4.9,81,0.00,,,0.00,WUHU216HW,2013-01-09 20:51:00,
2013-01-09 12:56:00,51.7,46.0,30.03,SSW,203,5.1,5.1,81,0.00,,,0.00,WUHU216HW,2013-01-09 20:56:00,
2013-01-09 13:01:00,51.7,46.0,30.03,SSE,158,1.8,5.1,81,0.00,,,0.00,WUHU216HW,2013-01-09 21:01:00,
2013-01-09 13:06:00,51.8,46.2,30.03,SW,225,1.1,5.1,81,0.00,,,0.00,WUHU216HW,2013-01-09 21:06:00,
2013-01-09 13:11:00,51.7,46.0,30.04,WSW,248,0.9,5.1,81,0.00,,,0.00,WUHU216HW,2013-01-09 21:11:00,
2013-01-09 13:16:00,51.7,45.7,30.03,SE,135,1.1,2.2,80,0.00,,,0.00,WUHU216HW,2013-01-09 21:16:00,
2013-01-09 13:21:00,51.8,45.9,30.03,SE,135,0.4,3.4,80,0.00,,,0.00,WUHU216HW,2013-01-09 21:21:00,
2013-01-09 13:26:00,51.7,45.7,30.04,SSE,158,1.1,3.4,80,0.00,,,0.00,WUHU216HW,2013-01-09 21:26:00,
2013-01-09 13:31:00,51.8,46.2,30.02,ESE,113,1.1,3.1,81,0.00,,,0.00,WUHU216HW,2013-01-09 21:31:00,
2013-01-09 13:36:00,51.8,46.2,30.03,SE,135,0.2,2.5,81,0.00,,,0.00,WUHU216HW,2013-01-09 21:36:00,
2013-01-09 13:41:00,52.0,46.1,30.03,South,180,1.1,2.9,80,0.00,,,0.00,WUHU216HW,2013-01-09 21:41:00,
2013-01-09 13:46:00,52.2,46.3,30.03,SE,135,0.9,2.9,80,0.00,,,0.00,WUHU216HW,2013-01-09 21:46:00,
2013-01-09 13:52:00,52.0,46.1,30.02,South,180,1.1,1.8,80,0.00,,,0.00,WUHU216HW,2013-01-09 21:52:00,
2013-01-09 13:57:00,52.2,46.3,30.02,SE,135,0.4,1.8,80,0.00,,,0.00,WUHU216HW,2013-01-09 21:57:00,
2013-01-09 14:02:00,51.8,45.9,30.01,East,90,1.1,1.8,80,0.00,,,0.00,WUHU216HW,2013-01-09 22:02:00,
2013-01-09 14:07:00,51.5,45.5,30.01,SSE,158,0.4,2.0,80,0.00,,,0.00,WUHU216HW,2013-01-09 22:07:00,
2013-01-09 14:12:00,51.5,45.5,30.02,SSE,158,1.6,2.0,80,0.00,,,0.00,WUHU216HW,2013-01-09 22:12:00,
2013-01-09 14:17:00,51.5,45.5,30.01,SSW,203,2.7,2.7,80,0.00,,,0.00,WUHU216HW,2013-01-09 22:17:00,
2013-01-09 14:22:00,51.5,45.8,30.02,SSE,158,0.9,3.4,81,0.00,,,0.00,WUHU216HW,2013-01-09 22:22:00,
2013-01-09 14:27:00,51.3,45.6,30.02,SSW,203,1.1,3.4,81,0.00,,,0.00,WUHU216HW,2013-01-09 22:27:00,
2013-01-09 14:32:00,51.3,45.6,30.01,SSE,158,0.9,2.5,81,0.00,,,0.00,WUHU216HW,2013-01-09 22:32:00,
2013-01-09 14:37:00,51.3,46.0,30.02,South,180,1.1,1.8,82,0.00,,,0.00,WUHU216HW,2013-01-09 22:37:00,
2013-01-09 14:42:00,51.3,46.0,30.01,SE,135,0.4,1.8,82,0.00,,,0.00,WUHU216HW,2013-01-09 22:42:00,
2013-01-09 14:47:00,51.3,46.0,30.01,ESE,113,0.7,1.1,82,0.00,,,0.00,WUHU216HW,2013-01-09 22:47:00,
2013-01-09 14:52:00,51.1,45.8,30.01,SSE,158,1.8,1.8,82,0.00,,,0.00,WUHU216HW,2013-01-09 22:52:00,
2013-01-09 14:57:00,50.9,45.6,30.01,SSW,203,1.6,3.1,82,0.00,,,0.00,WUHU216HW,2013-01-09 22:57:00,
2013-01-09 15:02:00,50.8,45.5,30.01,SSW,203,2.7,3.4,82,0.00,,,0.00,WUHU216HW,2013-01-09 23:02:00,
2013-01-09 15:08:00,50.8,45.5,30.01,SSE,158,1.1,3.4,82,0.00,,,0.00,WUHU216HW,2013-01-09 23:08:00,
2013-01-09 15:13:00,50.8,45.7,30.01,SSE,158,1.1,1.8,83,0.00,,,0.00,WUHU216HW,2013-01-09 23:13:00,
2013-01-09 15:18:00,50.6,45.5,30.01,South,180,0.4,1.8,83,0.00,,,0.00,WUHU216HW,2013-01-09 23:18:00,
2013-01-09 15:23:00,50.4,45.4,30.00,SW,225,0.7,1.8,83,0.00,,,0.00,WUHU216HW,2013-01-09 23:23:00,
2013-01-09 15:28:00,50.2,45.2,30.00,SSW,203,1.1,3.4,83,0.00,,,0.00,WUHU216HW,2013-01-09 23:28:00,
2013-01-09 15:33:00,50.2,45.6,30.01,SE,135,2.5,3.4,84,0.00,,,0.00,WUHU216HW,2013-01-09 23:33:00,
2013-01-09 15:38:00,50.0,45.4,30.00,SSE,158,0.9,2.5,84,0.00,,,0.00,WUHU216HW,2013-01-09 23:38:00,
2013-01-09 15:43:00,50.0,45.4,30.01,SSE,158,2.5,2.5,84,0.00,,,0.00,WUHU216HW,2013-01-09 23:43:00,
2013-01-09 15:48:00,50.0,45.4,30.01,East,90,1.1,2.9,84,0.00,,,0.00,WUHU216HW,2013-01-09 23:48:00,
2013-01-09 15:54:00,50.0,45.6,30.01,ESE,113,0.9,2.9,85,0.00,,,0.00,WUHU216HW,2013-01-09 23:54:00,
2013-01-09 15:59:00,50.0,45.6,30.01,SSW,203,1.1,2.5,85,0.00,,,0.00,WUHU216HW,2013-01-09 23:59:00,
2013-01-09 16:04:00,50.0,45.6,30.00,SSE,158,0.4,2.5,85,0.00,,,0.00,WUHU216HW,2013-01-10 00:04:00,
2013-01-09 16:09:00,50.0,45.6,30.01,SSE,158,3.1,3.1,85,0.00,,,0.00,WUHU216HW,2013-01-10 00:09:00,
2013-01-09 16:14:00,50.0,45.6,30.01,ESE,113,1.8,3.1,85,0.00,,,0.00,WUHU216HW,2013-01-10 00:14:00,
2013-01-09 16:19:00,50.0,45.9,30.00,ESE,113,0.4,2.5,86,0.00,,,0.00,WUHU216HW,2013-01-10 00:19:00,
2013-01-09 16:27:00,50.0,45.9,30.00,SE,135,1.3,1.8,86,0.00,,,0.00,WUHU216HW,2013-01-10 00:27:00,
2013-01-09 16:32:00,50.0,45.9,30.00,SE,135,0.2,2.5,86,0.00,,,0.00,WUHU216HW,2013-01-10 00:32:00,
2013-01-09 16:37:00,50.2,46.1,29.99,South,180,1.1,2.5,86,0.00,,,0.00,WUHU216HW,2013-01-10 00:37:00,
2013-01-09 16:42:00,50.2,46.1,30.00,SSW,203,0.4,3.6,86,0.00,,,0.00,WUHU216HW,2013-01-10 00:42:00,
2013-01-09 16:47:00,50.4,46.3,30.00,SE,135,0.4,3.6,86,0.00,,,0.00,WUHU216HW,2013-01-10 00:47:00,
2013-01-09 16:52:00,50.8,47.0,29.99,SE,135,1.6,2.0,87,0.00,,,0.00,WUHU216HW,2013-01-10 00:52:00,
2013-01-09 16:57:00,50.8,46.6,29.99,SE,135,1.8,3.4,86,0.00,,,0.00,WUHU216HW,2013-01-10 00:57:00,
2013-01-09 17:02:00,50.8,46.6,29.99,ESE,113,0.7,3.4,86,0.00,,,0.00,WUHU216HW,2013-01-10 01:02:00,
2013-01-09 17:07:00,50.6,46.4,29.99,SE,135,1.8,4.0,86,0.00,,,0.00,WUHU216HW,2013-01-10 01:07:00,
2013-01-09 17:12:00,50.4,46.3,29.98,South,180,2.5,5.6,86,0.00,,,0.00,WUHU216HW,2013-01-10 01:12:00,
2013-01-09 17:17:00,50.2,46.1,29.98,South,180,1.8,5.6,86,0.00,,,0.00,WUHU216HW,2013-01-10 01:17:00,
2013-01-09 17:22:00,50.0,45.9,29.98,SSE,158,3.8,4.7,86,0.00,,,0.00,WUHU216HW,2013-01-10 01:22:00,
2013-01-09 17:28:00,50.0,45.9,29.98,SSW,203,4.0,5.4,86,0.00,,,0.00,WUHU216HW,2013-01-10 01:28:00,
2013-01-09 17:33:00,50.0,45.9,29.98,SE,135,5.8,5.8,86,0.00,,,0.00,WUHU216HW,2013-01-10 01:33:00,
2013-01-09 17:38:00,50.0,45.9,29.98,SE,135,1.1,5.8,86,0.00,,,0.00,WUHU216HW,2013-01-10 01:38:00,
2013-01-09 17:43:00,50.0,45.9,29.98,SSE,158,0.7,4.7,86,0.00,,,0.00,WUHU216HW,2013-01-10 01:43:00,
2013-01-09 17:48:00,50.0,45.9,29.98,ESE,113,0.4,2.2,86,0.00,,,0.00,WUHU216HW,2013-01-10 01:48:00,
2013-01-09 17:53:00,50.0,45.9,29.98,South,180,0.4,3.4,86,0.00,,,0.00,WUHU216HW,2013-01-10 01:53:00,
2013-01-09 17:58:00,50.0,45.9,29.98,SE,135,2.5,3.4,86,0.00,,,0.00,WUHU216HW,2013-01-10 01:58:00,
2013-01-09 18:03:00,50.0,45.9,29.98,SSE,158,1.3,2.7,86,0.00,,,0.00,WUHU216HW,2013-01-10 02:03:00,
2013-01-09 18:08:00,50.0,45.9,29.98,SSW,203,0.7,2.7,86,0.00,,,0.00,WUHU216HW,2013-01-10 02:08:00,
2013-01-09 18:13:00,50.0,45.9,29.98,SSW,203,0.7,1.6,86,0.00,,,0.00,WUHU216HW,2013-01-10 02:13:00,
2013-01-09 18:18:00,50.0,45.9,29.99,NNE,23,0.4,3.4,86,0.00,,,0.00,WUHU216HW,2013-01-10 02:18:00,
2013-01-09 18:23:00,50.0,45.9,29.99,North,0,1.1,3.4,86,0.00,,,0.00,WUHU216HW,2013-01-10 02:23:00,
2013-01-09 18:28:00,50.0,45.9,29.98,SSW,203,0.0,1.8,86,0.00,,,0.00,WUHU216HW,2013-01-10 02:28:00,
2013-01-09 18:33:00,50.0,45.9,29.98,SE,135,0.4,1.8,86,0.00,,,0.00,WUHU216HW,2013-01-10 02:33:00,
2013-01-09 18:38:00,50.0,45.9,29.98,ESE,113,0.2,1.1,86,0.00,,,0.00,WUHU216HW,2013-01-10 02:38:00,
2013-01-09 18:44:00,50.0,45.9,29.98,NW,315,0.4,1.1,86,0.00,,,0.00,WUHU216HW,2013-01-10 02:44:00,
2013-01-09 18:49:00,50.0,45.6,29.99,NNE,23,0.2,0.9,85,0.00,,,0.00,WUHU216HW,2013-01-10 02:49:00,
2013-01-09 18:54:00,49.9,44.8,29.99,NNW,338,1.1,1.1,83,0.00,,,0.00,WUHU216HW,2013-01-10 02:54:00,
2013-01-09 18:59:00,49.9,44.6,29.99,West,270,0.4,2.0,82,0.00,,,0.00,WUHU216HW,2013-01-10 02:59:00,
2013-01-09 19:04:00,49.7,43.7,30.00,NW,315,1.8,2.0,80,0.00,,,0.00,WUHU216HW,2013-01-10 03:04:00,
2013-01-09 19:09:00,49.5,43.2,30.00,WNW,293,1.3,2.0,79,0.00,,,0.00,WUHU216HW,2013-01-10 03:09:00,
2013-01-09 19:14:00,49.3,42.7,30.00,NW,315,0.9,1.8,78,0.00,,,0.00,WUHU216HW,2013-01-10 03:14:00,
2013-01-09 19:19:00,49.3,42.7,30.00,North,0,1.3,2.5,78,0.00,,,0.00,WUHU216HW,2013-01-10 03:19:00,
2013-01-09 19:24:00,49.0,42.3,30.00,NNW,338,1.1,2.5,78,0.01,,,0.00,WUHU216HW,2013-01-10 03:24:00,
2013-01-09 19:29:00,48.8,42.5,29.99,North,0,0.7,2.0,79,0.01,,,0.00,WUHU216HW,2013-01-10 03:29:00,
2013-01-09 19:34:00,48.6,42.3,29.99,NNW,338,0.7,2.0,79,0.01,,,0.00,WUHU216HW,2013-01-10 03:34:00,
2013-01-09 19:39:00,48.4,41.8,29.99,NW,315,0.9,3.6,78,0.01,,,0.00,WUHU216HW,2013-01-10 03:39:00,
2013-01-09 19:44:00,48.2,41.6,29.99,NW,315,0.2,3.6,78,0.01,,,0.00,WUHU216HW,2013-01-10 03:44:00,
2013-01-09 19:49:00,48.2,41.6,30.00,SSW,203,0.4,2.5,78,0.01,,,0.00,WUHU216HW,2013-01-10 03:49:00,
2013-01-09 19:54:00,48.2,41.6,30.00,NW,315,0.4,2.2,78,0.01,,,0.00,WUHU216HW,2013-01-10 03:54:00,
2013-01-09 19:59:00,48.2,41.3,30.00,NNE,23,0.4,1.3,77,0.01,,,0.00,WUHU216HW,2013-01-10 03:59:00,
2013-01-09 20:04:00,48.1,41.5,30.00,NNW,338,0.4,1.3,78,0.01,,,0.00,WUHU216HW,2013-01-10 04:04:00,
2013-01-09 20:09:00,47.9,41.0,30.01,NNW,338,1.6,2.2,77,0.01,,,0.00,WUHU216HW,2013-01-10 04:09:00,
2013-01-09 20:14:00,47.9,41.0,30.01,NW,315,2.5,3.4,77,0.01,,,0.00,WUHU216HW,2013-01-10 04:14:00,
2013-01-09 20:20:00,47.9,41.0,30.01,North,0,0.4,3.4,77,0.01,,,0.00,WUHU216HW,2013-01-10 04:20:00,
2013-01-09 20:25:00,47.7,41.1,30.01,NW,315,0.7,2.5,78,0.00,,,0.00,WUHU216HW,2013-01-10 04:25:00,
2013-01-09 20:30:00,47.7,41.1,30.01,NW,315,1.1,2.7,78,0.00,,,0.00,WUHU216HW,2013-01-10 04:30:00,
2013-01-09 20:35:00,47.5,41.0,30.01,West,270,0.7,2.7,78,0.00,,,0.00,WUHU216HW,2013-01-10 04:35:00,
2013-01-09 20:40:00,47.7,40.8,30.02,NNW,338,1.8,2.0,77,0.00,,,0.00,WUHU216HW,2013-01-10 04:40:00,
2013-01-09 20:45:00,47.5,41.0,30.02,West,270,1.8,2.5,78,0.00,,,0.00,WUHU216HW,2013-01-10 04:45:00,
2013-01-09 20:50:00,47.3,40.2,30.02,WNW,293,1.8,4.0,76,0.00,,,0.00,WUHU216HW,2013-01-10 04:50:00,
2013-01-09 20:55:00,47.2,40.0,30.02,North,0,1.8,4.0,76,0.00,,,0.00,WUHU216HW,2013-01-10 04:55:00,
2013-01-09 21:00:00,47.2,39.6,30.02,NNE,23,4.7,4.7,75,0.00,,,0.00,WUHU216HW,2013-01-10 05:00:00,
2013-01-09 21:01:00,47.2,39.6,30.02,NNE,23,4.7,4.7,75,0.00,,,0.00,WUHU216HW,2013-01-10 05:01:00,
2013-01-09 21:02:00,47.2,39.6,30.02,WNW,293,2.5,4.7,75,0.00,,,0.00,WUHU216HW,2013-01-10 05:02:00,
2013-01-09 21:07:00,46.8,39.0,30.03,West,270,2.0,4.7,74,0.00,,,0.00,WUHU216HW,2013-01-10 05:07:00,
2013-01-09 21:12:00,46.6,38.8,30.03,NW,315,2.5,3.4,74,0.00,,,0.00,WUHU216HW,2013-01-10 05:12:00,
2013-01-09 21:17:00,46.4,39.0,30.03,NNW,338,1.6,2.9,75,0.00,,,0.00,WUHU216HW,2013-01-10 05:17:00,
2013-01-09 21:22:00,46.4,39.0,30.04,WNW,293,3.4,3.4,75,0.00,,,0.00,WUHU216HW,2013-01-10 05:22:00,
2013-01-09 21:27:00,46.4,39.0,30.04,NNE,23,3.1,3.4,75,0.00,,,0.00,WUHU216HW,2013-01-10 05:27:00,
2013-01-09 21:32:00,46.3,38.4,30.04,NW,315,0.4,3.8,74,0.00,,,0.00,WUHU216HW,2013-01-10 05:32:00,
2013-01-09 21:37:00,46.1,38.3,30.04,NW,315,0.9,3.8,74,0.00,,,0.00,WUHU216HW,2013-01-10 05:37:00,
2013-01-09 21:43:00,45.9,38.1,30.04,NNW,338,1.1,2.5,74,0.00,,,0.00,WUHU216HW,2013-01-10 05:43:00,
2013-01-09 21:48:00,45.7,37.9,30.04,North,0,0.4,2.0,74,0.00,,,0.00,WUHU216HW,2013-01-10 05:48:00,
2013-01-09 21:53:00,45.5,37.7,30.05,West,270,1.1,2.0,74,0.00,,,0.00,WUHU216HW,2013-01-10 05:53:00,
2013-01-09 21:58:00,45.4,37.5,30.05,WNW,293,1.1,1.3,74,0.00,,,0.00,WUHU216HW,2013-01-10 05:58:00,
2013-01-09 22:03:00,45.2,37.4,30.05,NW,315,0.7,2.7,74,0.00,,,0.00,WUHU216HW,2013-01-10 06:03:00,
2013-01-09 22:08:00,45.0,37.2,30.05,SW,225,0.9,2.7,74,0.00,,,0.00,WUHU216HW,2013-01-10 06:08:00,
2013-01-09 22:13:00,44.8,37.0,30.05,West,270,2.9,2.9,74,0.00,,,0.00,WUHU216HW,2013-01-10 06:13:00,
2013-01-09 22:18:00,44.6,36.8,30.05,NNW,338,1.8,2.9,74,0.00,,,0.00,WUHU216HW,2013-01-10 06:18:00,
2013-01-09 22:23:00,44.6,36.8,30.06,WSW,248,0.4,1.8,74,0.00,,,0.00,WUHU216HW,2013-01-10 06:23:00,
2013-01-09 22:28:00,44.5,36.6,30.06,NW,315,2.0,2.0,74,0.00,,,0.00,WUHU216HW,2013-01-10 06:28:00,
2013-01-09 22:33:00,44.3,36.5,30.06,NW,315,0.7,2.0,74,0.00,,,0.00,WUHU216HW,2013-01-10 06:33:00,
2013-01-09 22:38:00,44.3,36.5,30.05,NNW,338,0.4,1.8,74,0.00,,,0.00,WUHU216HW,2013-01-10 06:38:00,
2013-01-09 22:43:00,44.3,36.5,30.06,NW,315,2.0,2.2,74,0.00,,,0.00,WUHU216HW,2013-01-10 06:43:00,
2013-01-09 22:48:00,43.9,36.2,30.06,SW,225,2.2,2.2,74,0.00,,,0.00,WUHU216HW,2013-01-10 06:48:00,
2013-01-09 22:53:00,43.9,36.2,30.06,South,180,0.4,2.2,74,0.00,,,0.00,WUHU216HW,2013-01-10 06:53:00,
2013-01-09 22:58:00,43.6,35.8,30.06,West,270,1.1,1.1,74,0.00,,,0.00,WUHU216HW,2013-01-10 06:58:00,
2013-01-09 23:04:00,43.6,35.8,30.06,NNW,338,0.7,1.1,74,0.00,,,0.00,WUHU216HW,2013-01-10 07:04:00,
2013-01-09 23:09:00,43.4,36.0,30.06,NW,315,0.4,1.3,75,0.00,,,0.00,WUHU216HW,2013-01-10 07:09:00,
2013-01-09 23:14:00,43.2,35.8,30.06,NNW,338,0.0,1.3,75,0.00,,,0.00,WUHU216HW,2013-01-10 07:14:00,
2013-01-09 23:19:00,43.0,35.7,30.07,North,0,0.4,0.7,75,0.00,,,0.00,WUHU216HW,2013-01-10 07:19:00,
2013-01-09 23:24:00,42.8,35.5,30.07,NNW,338,0.9,0.9,75,0.00,,,0.00,WUHU216HW,2013-01-10 07:24:00,
2013-01-09 23:29:00,42.7,35.7,30.07,WNW,293,0.0,0.9,76,0.00,,,0.00,WUHU216HW,2013-01-10 07:29:00,
2013-01-09 23:34:00,42.5,35.5,30.07,WNW,293,0.0,0.0,76,0.00,,,0.00,WUHU216HW,2013-01-10 07:34:00,
2013-01-09 23:39:00,42.1,35.4,30.07,WNW,293,0.0,0.0,77,0.00,,,0.00,WUHU216HW,2013-01-10 07:39:00,
2013-01-09 23:44:00,41.9,35.2,30.07,South,180,0.0,0.0,77,0.00,,,0.00,WUHU216HW,2013-01-10 07:44:00,
2013-01-09 23:49:00,41.6,34.8,30.07,South,180,0.0,0.0,77,0.00,,,0.00,WUHU216HW,2013-01-10 07:49:00,
2013-01-09 23:54:00,41.4,35.0,30.07,South,180,0.0,0.0,78,0.00,,,0.00,WUHU216HW,2013-01-10 07:54:00,
2013-01-09 23:59:00,41.0,34.7,30.08,South,180,0.0,0.0,78,0.00,,,0.00,WUHU216HW,2013-01-10 07:59:00,